{"data":{"norad_id":52101,"intl_designator":"2022-029P","name":"STARLINK-3703","alt_names":[],"object_type":"PAYLOAD","status":"ACTIVE","operator":null,"country":"US","launch_date":"2022-03-19","launch_site_code":"AFETR","launch_vehicle":null,"mission":null,"orbit_class":"UNKNOWN","rcs_meters":null,"size_class":null,"mass_kg":null,"dimensions":null,"purposes":["comms"],"wikipedia_slug":null,"has_3d_model":false,"image_url":null,"decayed_at":null,"tle_current":{"epoch":"2026-05-25T04:20:03.155712Z","epoch_age_seconds":56129,"freshness":"FRESH","line1":"1 52101U 22029P   26145.18059208 -.00000196  00000+0  57720-5 0  9997","line2":"2 52101  53.2136 105.9318 0001673  79.8239 280.2941 15.08838310232193","mean_motion":15.0883831,"eccentricity":0.0001673,"inclination_deg":53.2136,"raan_deg":105.9318,"arg_perigee_deg":79.8239,"mean_anomaly_deg":280.2941,"bstar":5.772e-6,"rev_number":23219,"period_min":95.437661574221,"perigee_km":538.59119236954,"apogee_km":540.90591687612,"semimajor_km":6917.8855546228,"source":"CELESTRAK","updated_at":"2026-05-25T13:38:17.069904Z"}}}